Quillayute, WA

9:43 AM PDT on March 27, 2017 (GMT -0700)
Quillayute

Weather History for KUIL - February, 2014

Change the Weather History Date:

Wednesday, February 26, 2014

  Actual Average Record
Temperature  
Mean Temperature 50 °F 43 °F  
Max Temperature 58 °F 50 °F 73 °F (1992)
Min Temperature 42 °F 35 °F 18 °F (1993)
Degree Days  
Heating Degree Days 15 22  
Month to date heating degree days 602 596  
Since 1 July heating degree days 3160 3801  
Cooling Degree Days 0 0  
Month to date cooling degree days 0 0  
Year to date cooling degree days 0 0  
Moisture  
Dew Point 39 °F    
Average Humidity 69    
Maximum Humidity 86    
Minimum Humidity 51    
Precipitation  
Precipitation 0.02 in 0.36 in 1.97 in (1980)
Month to date precipitation 10.64 9.63  
Year to date precipitation 22.57 24.24  
Sea Level Pressure  
Sea Level Pressure 29.82 in    
Wind  
Wind Speed 3 mph (ENE)    
Max Wind Speed 14 mph    
Max Gust Speed 19 mph    
Visibility 7 miles    
Events Rain    
T = Trace of Precipitation, MM = Missing Value Source: NWS Daily Summary

Daily Weather History Graph

Daily Weather History Graph

Search for Another Location

Airport or City:

Trip Planner

Search our weather history database for the weather conditions in past years. The results will help you decide how hot, cold, wet, or windy it might be!

Date:

Astronomy

Feb. 26, 2014 Rise Set
Actual Time 7:04 AM PST 5:58 PM PST
Civil Twilight 6:33 AM PST 6:29 PM PST
Nautical Twilight 5:57 AM PST 7:05 PM PST
Astronomical Twilight 5:21 AM PST 7:41 PM PST
Moon 5:04 AM PST (2/26) 3:11 PM PST (2/26)
Length of Visible Light 11h 56m
Length of Day
10h 53m
Waning Crescent, 9% of the Moon is Illuminated
Feb 26
Waning Crescent
Mar 1
New
Mar 8
First Quarter
Mar 16
Full
Mar 23
Last Quarter

Hourly Weather History & Observations

Time (PST) Temp. Windchill Dew Point Humidity Pressure Visibility Wind Dir Wind Speed Gust Speed Precip Events Conditions
12:53 AM 44.1 °F 40.1 °F 36.0 °F 73% 29.92 in 8.0 mi ENE 6.9 mph - N/A   Clear
1:53 AM 44.1 °F 40.1 °F 36.0 °F 73% 29.91 in 8.0 mi ENE 6.9 mph - N/A   Clear
2:53 AM 44.1 °F 39.0 °F 36.0 °F 73% 29.89 in 8.0 mi ENE 9.2 mph - N/A   Clear
3:53 AM 44.1 °F 40.1 °F 36.0 °F 73% 29.87 in 8.0 mi ENE 6.9 mph - N/A   Clear
4:53 AM 43.0 °F 40.3 °F 36.0 °F 76% 29.87 in 8.0 mi NE 4.6 mph - N/A   Clear
5:53 AM 43.0 °F 38.8 °F 35.1 °F 74% 29.86 in 8.0 mi ENE 6.9 mph - N/A   Clear
6:53 AM 43.0 °F 38.8 °F 36.0 °F 76% 29.86 in 8.0 mi ENE 6.9 mph - N/A   Clear
7:53 AM 43.0 °F 41.3 °F 36.0 °F 76% 29.87 in 6.0 mi Variable 3.5 mph - N/A   Haze
8:53 AM 46.9 °F - 37.0 °F 68% 29.87 in 7.0 mi East 5.8 mph - N/A   Clear
9:53 AM 48.9 °F - 37.9 °F 66% 29.86 in 7.0 mi ENE 5.8 mph - N/A   Mostly Cloudy
11:53 AM 54.0 °F - 39.9 °F 59% 29.84 in 7.0 mi East 4.6 mph - N/A   Clear
12:53 PM 55.9 °F - 39.0 °F 53% 29.83 in 7.0 mi Calm Calm - N/A   Clear
1:53 PM 57.0 °F - 39.9 °F 53% 29.81 in 7.0 mi Variable 4.6 mph - N/A   Scattered Clouds
2:53 PM 55.0 °F - 37.9 °F 53% 29.81 in 7.0 mi South 3.5 mph - N/A   Mostly Cloudy
3:53 PM 55.0 °F - 39.0 °F 55% 29.80 in 7.0 mi Calm Calm - N/A   Mostly Cloudy
4:53 PM 53.1 °F - 41.0 °F 64% 29.78 in 5.0 mi Calm Calm - 0.00 in Rain Light Rain
5:53 PM 50.0 °F - 46.0 °F 86% 29.77 in 4.0 mi Calm Calm - 0.01 in Rain Light Rain
6:53 PM 48.9 °F - 44.1 °F 83% 29.76 in 8.0 mi Calm Calm - 0.01 in   Overcast
7:53 PM 48.0 °F - 42.1 °F 80% 29.75 in 9.0 mi Calm Calm - N/A   Overcast
8:53 PM 48.0 °F - 43.0 °F 83% 29.74 in 7.0 mi Calm Calm - 0.00 in Rain Light Rain
9:53 PM 46.9 °F - 42.1 °F 83% 29.73 in 7.0 mi ENE 3.5 mph - 0.00 in   Mostly Cloudy
10:53 PM 46.9 °F - 43.0 °F 86% 29.70 in 7.0 mi Calm Calm - N/A   Overcast
11:53 PM 46.9 °F - 42.1 °F 83% 29.69 in 8.0 mi Calm Calm - N/A   Overcast